Regional Weather Roundup
Issued by NWS

Home | Current Version | Previous Version | Graphics & Text | Print | Product List | Glossary On
Versions: 1 2 3 4 5 6 7 8 9 10 11 12 13 14 15 16 17 18 19 20 21 22 23 24 25 26 27 28 29 30 31 32 33 34 35 36 37 38 39 40 41 42 43 44 45 46 47 48 49 50
000
ASUS43 KMPX 261410
RWRMN
WEATHER ROUNDUP FOR MINNESOTA
NATIONAL WEATHER SERVICE TWIN CITIES/CHANHASSEN MN
800 AM CST FRI DEC 26 2014


NOTE: "FAIR" INDICATES FEW OR NO CLOUDS BELOW 12,000 FEET WITH NO
SIGNIFICANT WEATHER AND/OR OBSTRUCTIONS TO VISIBILITY. N/A MEANS
CURRENT SKY AND/OR WEATHER CONDITIONS ARE NOT AVAILABLE.

MNZ060>063-068>070-261500-
   Twin Cities Metro

CITY           SKY/WX    TMP DP  RH WIND       PRES   REMARKS
TWIN CITIES    CLOUDY    32  29  88 N13       29.97R WCI  22
ST PAUL        CLOUDY    33  30  88 N8        29.98R WCI  26
CRYSTAL        CLOUDY    32  28  85 N8        29.97R WCI  25
BLAINE         CLOUDY    32  32 100 N12       29.97R WCI  23
LAKEVILLE      CLOUDY    30  30 100 N9        29.95R FOG     WCI  22
EDEN PRAIRIE   CLOUDY    32  28  85 N12       29.95R WCI  23
SOUTH ST PAUL  CLOUDY    33  31  91 N9        29.96R WCI  25
LAKE ELMO      CLOUDY    32  32 100 N7        29.97R WCI  26
$$
MNZ001>005-007-008-013>017-022>024-027-028-261500-
   Northwest Minnesota

CITY           SKY/WX    TMP DP  RH WIND       PRES   REMARKS
BEMIDJI        CLOUDY    23  18  81 N6        30.04R WCI  16
HALLOCK        FLURRIES  21  19  93 CALM      30.13R
ROSEAU         CLOUDY    19  16  86 CALM      30.10S
WARROAD        CLOUDY    18  14  86 W5        30.10R WCI  11
THIEF RVR FALL CLOUDY    21  19  93 NW10      30.10R WCI  10
CROOKSTON      FLURRIES  21  19  93 N9        30.14R WCI  11
FOSSTON        CLOUDY    19  18  93 CALM      30.08R
DETROIT LAKES  CLOUDY    25  23  93 N7        30.07R WCI  17
MOORHEAD       CLOUDY    25  23  93 N13       30.12R WCI  13
PARK RAPIDS    CLOUDY    25  19  78 N8        30.03R WCI  16
MAHNOMEN       CLOUDY    22  20  91 N6        30.08R WCI  15
$$
MNZ006-009>011-018-025>026-261500-
   North Central Minnesota

CITY           SKY/WX    TMP DP  RH WIND       PRES   REMARKS
BAUDETTE       LGT SNOW  21  18  88 NW9       30.07R FOG     WCI  11
FLAG ISLAND    MOCLDY    18  16  93 NW8       30.07R WCI   7
INTL FALLS     CLOUDY    21  18  88 NW3       30.04R
WASKISH        CLOUDY    21  18  86 CALM      30.06S
BIG FORK       CLOUDY    23  19  86 NW5       30.03R WCI  17
LONGVILLE      CLOUDY    25  21  86 CALM      30.03R
GRAND RAPIDS   CLOUDY    25  21  86 N8        30.01R WCI  16
CRANE LAKE     CLOUDY    25  23  93 CALM      30.03S
ORR            CLOUDY    25  21  86 NW3       29.98S
COOK           CLOUDY    25  23  93 NW3       30.00S
WALKER         CLOUDY    24  20  87 N5        30.04R WCI  18
$$
MNZ012-019>021-037-261500-
   Northeast Minnesota

CITY           SKY/WX    TMP DP  RH WIND       PRES   REMARKS
DULUTH         FLURRIES  27  22  81 N9        29.97R WCI  18
ELY            CLOUDY    25  23  93 CALM      29.98S
HIBBING        CLOUDY    27  23  85 NW3       30.00R
EVELETH        CLOUDY    27  23  86 CALM      30.00S
DULUTH HARBOR  FLURRIES  30  27  86 CALM      30.02S
TWO HARBORS    CLOUDY    30  25  80 CALM      29.97S
SILVER BAY     CLOUDY    28  25  86 N3        29.97S
GRAND MARAIS     N/A     31  24  75 W3        30.01R
G MARAIS ARPRT CLOUDY    23  19  86 CALM      29.95R
$$
MNZ029>031-032-039>041-046>048-054>057-064-261500-
   West Central Minnesota

CITY           SKY/WX    TMP DP  RH WIND       PRES   REMARKS
FERGUS FALLS   CLOUDY    23  21  93 N14G20    30.10R FOG     WCI  11
WHEATON        CLOUDY    21  19  93 NW13G22   30.11R FOG     WCI   9
MORRIS         PTCLDY    27  25  93 NW8       30.05R WCI  18
ALEXANDRIA     CLOUDY    26  22  84 N9        30.03R WCI  17
ELBOW LAKE     CLOUDY    25  22  90 N9        30.06R WCI  15
WADENA         CLOUDY    25  19  80 N8        30.04R WCI  16
GLENWOOD       LGT SNOW  25  23  93 N8        30.03R WCI  16
APPLETON       FLURRIES  27  25  93 N14       30.05R WCI  15
BENSON         FLURRIES  27  23  86 N7        30.04R WCI  19
ORTONVILLE     LGT SNOW  25  21  86 N16       30.06S WCI  12
MADISON        FLURRIES  28  27  93 N13       30.06R WCI  18
WILLMAR        CLOUDY    28  25  86 N12       30.02R WCI  18
$$
MNZ033>034-036-042>043-049>051-058-059-261500-
   Central Minnesota

CITY           SKY/WX    TMP DP  RH WIND       PRES   REMARKS
ST CLOUD       CLOUDY    31  24  75 N10       30.01R WCI  22
SAUK CENTRE    LGT SNOW  26  24  93 N7        30.02R WCI  18
PAYNESVILLE    LGT SNOW  25  24  96 NW6       30.01S WCI  18
AITKIN         CLOUDY    28  21  74 N5        30.00R WCI  23
PINE RIVER     CLOUDY    25  21  86 N8        30.06R WCI  16
BRAINERD       CLOUDY    26  21  81 N8        30.02R WCI  18
STAPLES        CLOUDY    25  23  93 N6        30.03R WCI  18
LONG PRAIRIE   LGT SNOW  27  23  86 NW8       30.02R WCI  18
LITTLE FALLS   LGT SNOW  28  23  80 N5        30.02R WCI  23
LITCHFIELD     MIX PCPN  28  28 100 N9        30.01R WCI  20
BUFFALO        CLOUDY    29  27  90 N8        30.00R WCI  21
MAPLE LAKE     CLOUDY    30  28  95 N9        30.00S WCI  21
$$
MNZ037-044-045-052-053-261500-
   East Central Minnesota

CITY           SKY/WX    TMP DP  RH WIND       PRES   REMARKS
PRINCETON      CLOUDY    28  27  93 N6        30.01R WCI  22
MORA           CLOUDY    28  23  80 VRB5      30.01R WCI  23
CAMBRIDGE      FLURRIES  30  25  80 N3        29.98R
RUSH CITY      CLOUDY    29  27  90 N6        30.00R WCI  23
MOOSE LAKE     LGT SNOW  28  25  86 N6        29.98R WCI  22
HINCKLEY       CLOUDY    30  27  86 CALM      29.99R
CLOQUET        FLURRIES  27  23  86 N10       29.98S WCI  17
MCGREGOR       CLOUDY    28  25  86 N5        30.01R WCI  23
$$
MNZ071>073-080-081-089-090-097-098-261500-
   Southwest Minnesota

CITY           SKY/WX    TMP DP  RH WIND       PRES   REMARKS
MONTEVIDEO     FLURRIES  27  27 100 N14       30.05R WCI  15
GRANITE FALLS  CLOUDY    27  25  91 NW10      30.05R WCI  17
CANBY          CLOUDY    26  24  91 N9        30.06R WCI  17
MARSHALL       CLOUDY    27  21  80 N15       30.03R WCI  15
REDWOOD FALLS  CLOUDY    30  27  88 N8        30.01R WCI  22
OLIVIA         CLOUDY    28  28 100 N10       30.01R WCI  19
PIPESTONE      CLOUDY    25  25 100 N13       29.99R WCI  13
WINDOM         CLOUDY    28  28 100 N18       29.97R WCI  16
WORTHINGTON    CLOUDY    27 -20  12 N21G26    29.97R WCI  13
JACKSON        CLOUDY    32  30  93 N16G23    29.95S WCI  21
TRACY          CLOUDY    28  27  97 N12G18    30.02R FOG     WCI  18
SLAYTON        CLOUDY    26  25  98 N17       29.99R FOG     WCI  13
$$
MNZ065>067-074>077-082>085-091>093-261500-
   South Central Minnesota

CITY           SKY/WX    TMP DP  RH WIND       PRES   REMARKS
MANKATO        CLOUDY    32  27  80 N13       29.95R WCI  22
NEW ULM        CLOUDY    30  28  93 N7        29.97S WCI  23
ST JAMES       CLOUDY    32  30  93 N14       29.97S FOG     WCI  22
FAIRMONT       CLOUDY    30  27  86 N14       29.94R WCI  20
GLENCOE        CLOUDY    32  30  92 N9G17     29.97R WCI  24
FARIBAULT      CLOUDY    34  30  86 N8        29.94R FOG     WCI  27
OWATONNA       CLOUDY    32  30  93 N8        29.92R FOG     WCI  25
WASECA         CLOUDY    32  30  93 N9        29.94R FOG     WCI  24
ALBERT LEA     CLOUDY    30  30 100 N7        29.90R FOG     WCI  23
$$
MNZ078>079-086>088-094>096-261500-
   Southeast Minnesota

CITY           SKY/WX    TMP DP  RH WIND       PRES   REMARKS
ROCHESTER      FOG       24  23  96 NW8       29.90R VSB<1/4 WCI  15
RED WING       CLOUDY    34  30  86 CALM      29.93R
STANTON        CLOUDY    33  31  91 N12       29.93R FOG     WCI  24
DODGE CENTER   CLOUDY    30  30 100 N8        29.90R FOG     WCI  23
WINONA         CLEAR     28  27  93 CALM      29.92R
AUSTIN         FOG       27  27 100 N7        29.89R VSB 1   WCI  19
PRESTON        FOG       27  26  99 CALM      29.89R VSB 1/2
$$
ABBREVIATIONS USED IN REMARKS
   TC - TEMPERATURES IN CELSIUS
  WCI - WIND CHILL INDEX
   HX - HEAT INDEX
  VSB - VISIBILITY
$$



USA.gov is the U.S. government's official web portal to all federal, state and local government web resources and services.